Showing default

COSMOS 2612, 68762

Orbit data source: Space-Track

COSMOS 2612, 68762 is a payload satellite owned by VVKO VKS (CIS) in SSO that was launched on Thu, 16 Apr 2026 UTC via a SOYUZ-2-1B launch vehicle from the Plesetsk Missile And Space Complex (PKMTR). Payload-class satellites include a variety of spacecraft equipped with specific instruments for various scientific and technological missions. These include communications satellites like Starlink; space stations such as the ISS; scientific satellites like the Hubble; Earth observation satellites from companies like Planet Labs, Umbra, and HawkEye 360; GPS; miniature CubeSats for education and research; and military/defense satellites.

Loading next visibility...
Identifier
68762, 2026-083H
Orbit
SSO
Country
Flag of CISCIS
Related business
Manufacturer
Unknown (RU)
Mission
Operational spacecraft
Bus & Motor
UNK, Unknown motor
Mass
~500 kg wet, ~500 kg dry
Launch date (UTC)
2026-04-16 (2 months ago)
Launch vehicle
SOYUZ-2-1B
Launch site
Plesetsk Missile And Space Complex (PKMTR)
Object type
Payload
Rocket body
Debris
Shape & HBR
Unknown shape, 14.5 m
Radar Cross Section
Medium (>0.1 m² and <1 m²)

Expand to show TLE details & history
Last TLE update: 2 days ago

TLE from 2 days ago
0 COSMOS 2612
1 68762U 26083H   26155.30526842  .00002801  00000-0  19133-3 0  9998
2 68762  97.8529 293.1496 0014560  93.9610 266.3281 15.06953251  7269
Epoch: 2026-06-04T07:19Z
TLE epoch observation values (Epoch: 2026-06-04T07:19:35.191Z)
Latitude
-0.00008°
Longitude
-69.49846°
Altitude
549.236 km
Speed
7.587 km/s
True Right ascension
19h 32m 35s
True Declination
0° 00' 00"
Sunlit
Object was in full shadow at epoch
Visualization orbit readout
Latitude
Unknown
Longitude
Unknown
Altitude
Unknown
Speed
Unknown
Apparent Right ascension
Unknown
Apparent Declination
Unknown
Sunlit
N/A
Visualization observer readout
Local Sidereal Time
03:41:45
Azimuth
Unknown
Elevation
Unknown
Doppler factor
Unknown
Orbital elements
Apogee altitude
552.596 km
Perigee altitude
532.443 km
Semi-major axis
6,920.656 km
Eccentricity
0.00146
Inclination
97.8529°
RAAN
293.1496°
Arg. of periapsis
93.961°
True anomaly
266.16162°
Mean anomaly
266.3281°
Eccentric anomaly
266.24486°
Mean motion
3.76983 °/min
Orbital period
95.49 mins
BSTAR
0.00019133
Loading maneuver chart data...
Computing Atmospheric mass density...
Loading historical data...
Loading historical data...
Loading historical data...
Loading historical data...
Loading historical data...
Loading historical data...
Loading historical data...

Documentation

Showing up to 5 results
|